ATLAS 5 CENTAUR DEB, 46606

Orbit data source: Space-Track

ATLAS 5 CENTAUR DEB, 46606 is space debris in HEO originally from a launch on Wed, 17 Oct 2018 UTC launched from the Air Force Eastern Test Range (AFETR). Debris objects in space refer to the collection of defunct objects orbiting the Earth. Examples of debris include non-operational satellites, rocket bodies, and fragments generated from explosions, collisions, or faulty payload assembly.

Loading next visibility...
Identifier
46606, 2018-079CE
Orbit
HEO
Country
Flag of USUS
Related business
Flag of USUnited Launch Alliance/Lockheed Martin (US)
Manufacturer
ULA Decatur
Mission
Spacecraft
Bus & Motor
Unknown
Mass
Unknown
Launch date (UTC)
2018-10-17 (7 years ago)
Launch vehicle
Unknown
Launch site
Air Force Eastern Test Range (AFETR)
Object type
Payload
Rocket body
Debris
Shape & HBR
Unknown shape, 1.1 m
Radar Cross Section
Small (<0.1 m²)

Expand to show TLE details & history
Last TLE update: 1 day ago

TLE from 1 day ago
0 ATLAS 5 CENTAUR DEB
1 46606U 18079CE  25286.45667408 -.00000101  00000-0  00000-0 0  9993
2 46606  13.2495  59.8222 4651008 261.3680  45.2405  1.79382566 38273
Epoch: 2025-10-13T10:57Z
TLE epoch observation values (Epoch: 2025-10-13T10:57:36.640Z)
Latitude
-0°
Longitude
-126.87055°
Altitude
17,711.684 km
Speed
4.377 km/s
True Right ascension
03h 59m 09s
True Declination
0° 00' 00"
Sunlit
Object was in daylight at epoch
Visualization orbit readout
Latitude
Unknown
Longitude
Unknown
Altitude
Unknown
Speed
Unknown
Apparent Right ascension
Unknown
Apparent Declination
Unknown
Sunlit
N/A
Visualization observer readout
Local Sidereal Time
09:04:31
Azimuth
Unknown
Elevation
Unknown
Doppler factor
Unknown
Orbital elements
Apogee altitude
35,544.361 km
Perigee altitude
8,927.506 km
Semi-major axis
28,614.071 km
Eccentricity
0.4651
Inclination
13.2495°
RAAN
59.8222°
Arg. of periapsis
261.368°
True anomaly
98.76784°
Mean anomaly
45.2405°
Eccentric anomaly
70.33451°
Mean motion
0.44841 °/min
Orbital period
802.84 mins
BSTAR
0
Loading maneuver chart data...
Computing Atmospheric mass density...

Documentation

Showing up to 5 results
|